Temperature
12 12 11 11 11 11 11 11 11 10 10 10 10 10 10 10 10 10 10 10 10 9 9 9 9 8 8 8 8 8 8 7 7 7 7 6 6 6 6 6 6 6 6
12 12 11 11 11 11 11 11 10 10 10 10 10 10 10 10 10 10 10 10 10 10 9 9 9 8 8 8 8 8 7 7 7 7 6 6 6 6 5 5 5 5 5
12 12 11 11 11 11 10 10 10 10 10 10 10 10 10 10 10 10 10 10 10 10 9 9 9 9 8 8 8 7 7 7 7 7 6 6 6 5 5 5 5 5 5
12 11 11 11 11 10 10 10 10 10 10 10 10 10 10 10 10 10 10 10 10 10 9 9 9 9 8 8 8 7 7 7 7 6 6 6 5 5 5 5 4 4 4
11 11 11 11 11 10 10 10 10 10 10 10 10 10 9 10 10 10 10 10 10 10 9 9 9 9 8 8 8 7 7 7 6 6 6 5 5 5 4 4 4 4 4
12 11 11 11 11 10 10 10 10 10 10 9 9 9 9 9 9 9 9 9 10 9 9 9 9 8 8 8 8 7 7 6 6 6 5 5 5 4 4 4 4 4 4
12 12 11 11 11 11 10 10 10 9 9 9 9 9 9 9 9 9 9 9 9 9 9 9 8 8 8 8 7 7 7 6 6 5 5 4 4 4 4 3 3 3 3
12 12 11 11 11 10 10 10 10 10 9 9 9 9 9 9 9 9 9 9 9 9 9 8 8 8 8 7 7 7 6 6 5 5 4 4 4 4 3 3 3 3 3
12 12 12 11 11 11 10 10 10 10 10 9 9 9 9 9 9 9 9 9 9 9 8 8 8 8 7 7 7 6 6 6 5 5 4 4 3 3 3 3 3 3 2
12 12 12 11 11 11 10 10 10 10 10 9 9 9 9 9 9 8 9 9 9 8 8 8 8 7 7 7 6 6 6 5 5 4 4 3 3 3 2 2 2 2 2
12 12 11 11 11 11 11 10 10 10 10 9 9 9 9 8 8 8 8 9 9 8 8 8 7 7 7 6 6 5 5 5 4 4 3 3 2 2 2 2 1 1 1
12 12 11 11 11 11 11 10 10 10 10 9 9 9 9 9 9 8 8 8 8 8 8 8 7 7 6 6 5 5 4 4 4 3 3 2 2 2 1 1 1 1 0
12 12 12 11 11 11 11 10 10 10 9 9 9 9 9 8 8 8 8 8 8 7 7 7 7 6 6 5 5 4 4 3 3 2 2 2 1 1 1 0 0 -0 -0
14 13 12 12 11 11 11 10 10 10 9 9 9 9 9 8 8 8 8 7 7 7 7 6 6 6 5 4 4 4 3 3 2 2 1 1 0 -0 -0 -1 -1 -1 -1
13 12 12 12 11 11 10 10 10 9 9 9 9 8 8 8 8 8 7 7 6 6 6 6 5 5 4 4 3 3 2 2 1 1 0 -0 -0 -1 -1 -1 -2 -2 -2
12 12 12 11 11 11 10 10 10 9 9 9 9 8 8 8 8 7 7 7 6 5 5 5 4 4 3 3 3 2 2 1 1 0 -0 -1 -1 -2 -2 -2 -3 -3 -3
12 12 11 11 11 10 10 10 10 9 9 9 8 8 8 8 7 7 7 6 6 5 5 4 4 3 3 3 2 2 1 1 0 -0 -1 -2 -2 -2 -3 -3 -3 -4 -4
12 11 11 11 11 10 10 10 9 9 9 9 8 8 8 8 7 7 6 6 5 5 4 4 3 3 2 2 1 1 0 -0 -1 -1 -2 -2 -3 -3 -4 -4 -4 -4 -5
11 11 11 11 10 10 10 10 9 9 9 8 8 8 8 7 7 6 6 6 5 4 4 3 3 2 2 1 0 0 -0 -1 -2 -2 -3 -3 -4 -4 -4 -4 -5 -5 -5
11 11 11 10 10 10 10 9 9 9 8 8 8 8 7 7 6 6 5 5 5 4 3 3 2 1 1 0 -0 -1 -1 -2 -2 -3 -3 -4 -4 -4 -5 -5 -5 -5 -6
11 11 10 10 10 10 9 9 9 8 8 8 8 7 7 6 6 5 5 5 4 3 3 2 1 1 -0 -1 -1 -2 -2 -3 -3 -3 -4 -4 -4 -5 -5 -5 -6 -6 -6
11 10 10 10 10 9 9 9 8 8 8 7 7 7 7 6 6 5 5 4 3 3 2 1 0 -0 -1 -2 -2 -3 -3 -4 -4 -4 -5 -5 -5 -5 -5 -6 -6 -7 -7
10 10 10 10 9 9 9 8 8 8 7 7 7 7 6 6 5 4 4 3 3 2 1 0 -0 -1 -2 -3 -3 -4 -4 -5 -5 -5 -5 -5 -5 -5 -6 -6 -7 -7 -7
10 10 10 10 9 9 9 8 8 7 7 7 6 6 6 5 4 4 3 3 2 1 1 -0 -1 -2 -3 -3 -4 -4 -5 -5 -5 -5 -6 -6 -6 -6 -6 -7 -7 -8 -8
10 10 9 9 9 9 8 8 7 7 7 6 6 5 5 4 4 3 3 2 2 1 -0 -1 -2 -2 -3 -4 -4 -5 -5 -5 -6 -6 -7 -7 -7 -7 -6 -6 -7 -8 -8
10 9 9 9 9 8 8 7 7 7 7 6 5 5 4 4 3 3 2 2 1 0 -1 -1 -2 -3 -3 -4 -4 -5 -6 -6 -7 -8 -8 -8 -9 -9 -8 -7 -7 -8 -8
Wind_Speed
8 8 8 9 9 8 6 5 4 4 4 5 6 7 6 6 7 6 5 5 4 4 3 3 4 4 4 4 5 5 6 7 8 8 9 9 10 10 11 12 12 12 13
11 9 7 7 8 9 8 7 6 5 4 4 4 5 6 6 6 6 5 4 3 3 2 2 2 2 2 3 3 4 5 6 7 8 8 9 10 10 11 11 12 12 13
15 11 7 6 9 11 9 7 5 5 3 3 3 3 4 4 5 5 5 4 3 3 2 1 0 1 1 2 3 4 5 6 7 7 8 9 10 10 11 12 12 13 13
18 13 8 7 11 10 8 4 4 3 3 2 2 1 2 3 4 5 5 5 4 4 3 3 2 2 3 3 4 5 5 6 7 8 9 10 10 11 12 12 13 13 14
19 14 9 8 12 8 5 5 3 4 3 2 2 1 1 2 3 4 4 5 6 6 5 5 4 4 4 5 6 6 7 7 8 9 10 10 11 12 13 13 14 14 15
19 15 10 10 11 6 5 5 5 3 3 3 2 0 1 2 2 3 4 5 6 7 7 6 5 5 6 7 7 8 8 9 10 10 11 12 13 13 14 14 15 16 16
18 14 9 9 8 7 7 7 4 4 2 3 2 2 3 2 2 2 3 3 4 6 6 7 7 7 7 8 9 9 10 11 11 12 12 13 14 15 15 16 16 17 18
18 15 11 10 9 7 7 7 5 4 2 3 3 2 2 4 3 2 2 3 3 4 5 7 7 8 9 8 9 10 11 12 13 13 14 15 15 16 17 18 18 19 19
18 15 13 11 10 9 9 8 7 7 5 3 3 4 3 4 3 3 3 3 3 3 4 5 7 8 9 9 10 11 11 12 13 14 15 16 17 17 18 19 20 20 20
16 16 14 13 11 9 9 9 8 5 6 4 3 2 3 3 3 2 3 3 3 4 4 4 6 7 8 9 10 11 12 13 14 15 16 17 18 19 20 20 21 22 22
14 15 15 13 11 9 10 9 8 7 6 5 4 3 2 1 2 3 4 4 3 4 4 4 5 6 7 7 8 9 10 12 14 15 16 17 18 20 21 22 22 23 23
11 13 14 13 12 10 10 10 9 9 7 6 5 4 4 3 4 3 4 4 4 4 3 3 3 4 6 6 7 8 10 12 13 15 16 17 18 19 21 22 23 23 23
11 15 13 13 11 10 10 9 9 9 8 7 7 5 4 4 3 3 3 3 3 3 3 2 2 3 4 4 6 8 9 11 13 15 16 17 18 19 20 21 22 22 22
13 13 13 12 12 11 10 9 8 8 7 7 7 6 4 4 3 3 3 3 2 2 3 4 2 1 3 3 5 7 8 12 14 15 16 17 18 19 20 20 20 21 21
10 11 13 12 11 11 11 10 8 8 7 7 7 6 5 4 3 3 3 3 3 3 4 3 2 2 3 3 6 6 8 11 13 15 16 16 17 18 19 19 20 21 21
11 12 13 12 11 11 11 10 8 8 8 7 5 6 5 3 3 3 3 2 3 4 4 3 2 2 3 4 6 7 8 11 13 15 16 16 17 18 19 19 20 20 20
13 14 13 13 12 12 11 10 9 9 9 7 6 6 6 4 3 3 2 2 2 3 4 3 2 2 2 3 5 7 8 8 10 13 15 16 17 17 18 19 19 19 19
14 13 13 12 12 12 11 12 11 10 10 9 8 7 6 4 4 3 3 3 2 2 3 3 2 2 2 3 4 4 6 8 9 12 14 15 16 17 18 18 19 18 18
13 13 13 13 12 12 11 11 11 10 9 9 8 8 6 6 5 3 3 3 2 1 2 2 2 1 2 3 3 4 5 5 9 10 12 14 16 17 18 19 18 18 17
14 13 13 12 12 11 11 10 10 9 8 7 7 6 6 6 6 5 4 3 2 2 1 0 1 1 2 2 2 3 4 4 6 7 10 13 15 16 17 18 18 17 17
13 13 12 11 11 10 10 11 10 9 9 7 6 5 5 6 6 5 4 3 3 2 1 1 1 1 2 2 3 2 4 5 5 3 5 8 9 9 12 16 16 16 17
12 12 12 12 11 9 13 16 13 10 9 9 7 6 5 5 6 6 5 5 5 3 2 1 1 2 3 2 2 3 3 4 4 3 4 6 4 6 8 11 14 16 17
13 12 12 12 11 12 17 17 16 11 9 8 8 7 5 4 6 4 5 5 4 4 3 3 1 2 2 2 1 2 3 3 4 4 4 4 4 5 8 11 15 17 17
13 12 12 12 11 12 18 18 17 10 8 8 7 7 7 6 6 7 5 4 3 3 3 2 2 1 1 1 0 1 3 4 4 4 2 3 4 5 8 10 13 16 18
11 11 11 12 12 12 17 19 16 9 8 7 6 6 7 6 8 9 7 5 4 3 4 5 5 5 5 5 4 2 3 4 4 3 2 3 4 6 5 4 10 16 18
12 11 10 10 12 12 16 19 17 9 9 7 6 5 8 8 9 10 6 5 4 2 2 3 4 5 5 6 7 3 1 2 3 3 3 4 3 5 5 4 5 11 12
Wind_Direction
164 165 167 167 170 172 169 165 168 164 152 140 131 133 136 137 140 138 132 124 117 114 102 94 83 68 61 53 46 35 25 19 15 12 8 4 1 358 356 354 351 350 348
171 170 170 174 181 183 179 174 170 161 153 140 128 134 140 147 150 151 150 145 142 138 127 111 82 48 41 33 24 16 8 4 1 359 356 354 352 349 347 346 344 343 340
174 173 172 177 186 184 175 164 154 144 135 124 119 132 146 160 164 165 167 166 172 179 187 191 223 318 325 333 342 348 346 344 345 343 342 342 340 339 337 337 336 335 333
177 172 173 181 183 174 165 151 145 134 131 129 136 153 157 170 182 185 182 187 192 202 215 234 246 273 287 297 312 318 322 325 328 328 329 329 328 328 328 328 327 326 325
180 174 175 181 176 164 160 160 150 144 146 152 162 171 202 195 197 194 195 201 205 210 220 235 245 261 277 285 293 299 305 310 313 317 318 319 319 319 320 320 319 320 319
181 176 174 176 170 162 163 160 152 142 150 158 140 72 291 262 217 208 212 211 212 215 220 229 241 254 264 275 284 291 297 302 305 308 310 312 313 313 313 314 315 314 314
181 178 176 173 171 173 172 163 150 149 153 138 98 9 335 327 266 239 221 215 224 225 223 228 238 248 260 271 278 285 292 298 301 304 307 309 310 310 310 310 310 310 310
183 184 177 178 176 171 169 169 155 151 165 156 139 116 325 325 311 275 244 229 235 235 235 237 241 246 252 260 270 280 287 295 300 303 306 308 308 308 308 308 307 307 307
186 185 181 178 178 177 181 181 171 164 174 193 169 153 167 230 282 303 268 249 241 240 248 246 246 248 251 255 262 272 281 291 298 303 306 308 309 309 309 308 308 308 308
188 187 183 181 181 182 183 185 181 171 164 183 200 197 179 167 180 283 303 285 262 249 250 250 252 254 257 257 261 271 281 289 296 302 305 308 309 309 309 309 309 309 309
190 189 186 185 185 187 187 185 181 180 177 178 180 174 175 170 172 188 260 289 294 264 248 246 249 255 259 262 265 275 286 293 299 303 306 308 308 309 309 309 310 310 309
192 192 189 189 189 189 190 188 186 184 187 182 183 177 172 179 195 187 223 251 269 280 268 251 245 251 262 267 273 287 293 297 301 305 307 307 308 308 310 310 310 310 310
195 196 192 191 191 190 187 181 184 190 188 188 193 197 196 200 177 176 193 233 253 279 298 286 255 257 273 279 286 300 301 303 305 308 309 309 309 310 311 312 312 313 313
198 191 191 192 190 186 184 182 187 191 189 195 199 198 201 209 187 180 181 183 247 283 287 279 307 296 299 294 300 311 310 310 310 311 310 311 312 312 312 313 314 316 316
189 185 188 189 187 185 184 182 192 192 188 196 200 200 205 207 194 194 179 171 180 243 267 274 292 323 319 311 318 323 312 313 316 315 314 315 315 316 317 318 317 316 316
184 184 188 188 186 185 184 185 188 188 189 196 194 196 204 200 186 180 179 177 178 196 243 261 255 302 331 331 334 331 318 324 323 320 318 320 322 323 322 321 320 318 317
186 187 188 188 187 187 185 187 190 183 189 193 189 190 198 185 177 182 171 169 180 177 233 273 274 316 335 329 336 334 330 329 328 325 324 324 325 326 325 324 323 321 321
187 186 183 185 187 187 187 188 188 184 188 191 188 184 193 176 176 174 167 177 184 182 200 258 283 310 315 328 330 326 336 333 324 324 328 329 330 329 327 325 323 322 323
180 180 180 184 186 185 185 187 185 183 186 186 183 183 183 169 181 178 173 182 182 163 165 210 271 311 316 334 332 328 331 326 325 324 332 333 331 330 328 326 325 324 325
177 179 180 182 182 180 180 178 175 173 172 170 168 170 170 173 183 179 178 181 161 145 135 193 277 305 305 323 330 318 322 324 320 320 330 329 328 330 330 328 327 327 327
174 173 172 173 172 173 175 169 167 164 161 155 151 153 157 158 162 165 163 163 151 147 141 164 272 310 306 322 317 309 314 319 311 318 326 318 315 317 323 325 326 327 330
166 165 169 169 170 173 167 165 161 158 157 156 153 146 142 143 150 149 144 140 141 147 167 173 230 272 284 285 297 320 316 330 313 314 315 302 308 310 316 318 327 336 337
160 162 163 164 166 165 161 160 156 154 154 156 154 150 141 141 134 125 120 106 97 100 121 148 190 247 270 274 297 309 298 294 282 296 316 294 303 308 317 321 330 337 339
160 159 159 158 155 158 156 153 149 143 140 144 147 149 147 144 144 135 121 105 86 69 75 93 146 222 298 288 206 298 284 299 290 295 322 295 307 312 315 312 324 339 342
152 151 154 152 151 154 154 151 144 137 135 134 136 140 143 145 145 137 127 122 99 60 61 69 63 49 31 21 29 30 0 353 326 311 340 315 308 315 304 299 321 335 339
146 143 144 149 150 153 155 152 144 140 138 135 129 134 142 143 143 140 138 137 133 115 79 57 43 36 24 16 20 29 352 336 320 307 319 325 309 328 316 298 304 316 322
Height
1524 1527 1529 1531 1533 1535 1536 1538 1539 1540 1541 1542 1543 1543 1543 1544 1544 1544 1543 1543 1543 1542 1542 1541 1540 1539 1538 1537 1535 1534 1532 1531 1529 1527 1525 1523 1522 1520 1518 1516 1514 1512 1510
1523 1526 1528 1530 1532 1534 1536 1537 1539 1540 1541 1542 1542 1543 1543 1544 1543 1543 1543 1543 1542 1542 1541 1541 1540 1539 1538 1537 1535 1533 1532 1530 1528 1526 1525 1523 1521 1519 1517 1515 1513 1511 1509
1522 1525 1527 1529 1531 1533 1535 1536 1538 1539 1540 1541 1542 1543 1543 1543 1543 1543 1543 1542 1542 1541 1541 1540 1539 1538 1537 1536 1534 1533 1531 1529 1527 1525 1523 1521 1519 1517 1515 1513 1511 1509 1507
1520 1523 1525 1527 1530 1532 1534 1535 1537 1538 1539 1540 1541 1542 1542 1542 1542 1542 1542 1541 1541 1540 1540 1539 1538 1537 1536 1535 1533 1532 1530 1528 1526 1524 1522 1520 1518 1516 1513 1511 1509 1507 1505
1518 1521 1523 1526 1528 1530 1532 1534 1536 1537 1538 1539 1540 1541 1541 1541 1541 1541 1540 1540 1540 1539 1539 1538 1537 1536 1535 1533 1532 1530 1528 1526 1524 1522 1520 1518 1515 1513 1511 1509 1507 1505 1502
1516 1519 1521 1524 1526 1528 1530 1532 1534 1536 1537 1538 1539 1539 1540 1539 1539 1539 1539 1539 1538 1538 1537 1536 1535 1534 1533 1532 1530 1528 1526 1524 1522 1520 1518 1515 1513 1511 1508 1506 1504 1501 1499
1513 1516 1519 1521 1524 1526 1528 1530 1532 1534 1535 1536 1537 1538 1538 1537 1537 1537 1537 1537 1536 1536 1535 1534 1533 1532 1531 1529 1528 1526 1524 1522 1520 1517 1515 1512 1510 1508 1505 1503 1500 1498 1495
1510 1513 1515 1518 1521 1523 1525 1528 1529 1531 1533 1534 1535 1535 1535 1536 1535 1535 1534 1534 1534 1534 1533 1532 1531 1530 1528 1527 1525 1523 1521 1519 1516 1514 1512 1509 1507 1504 1502 1499 1496 1493 1491
1506 1509 1512 1515 1518 1520 1522 1524 1527 1528 1529 1531 1532 1533 1533 1532 1532 1532 1532 1532 1531 1531 1530 1529 1528 1527 1525 1523 1521 1520 1517 1515 1513 1510 1508 1505 1502 1500 1497 1494 1492 1489 1486
1502 1505 1509 1511 1514 1517 1519 1522 1524 1525 1527 1528 1529 1530 1531 1531 1530 1529 1530 1529 1529 1528 1527 1526 1525 1523 1521 1520 1518 1516 1514 1511 1509 1506 1504 1501 1498 1495 1493 1490 1486 1483 1480
1498 1501 1505 1508 1510 1513 1516 1518 1520 1522 1524 1525 1526 1527 1527 1528 1528 1527 1526 1526 1525 1525 1524 1522 1521 1519 1518 1516 1514 1512 1509 1507 1504 1501 1499 1496 1493 1490 1487 1484 1481 1477 1474
1493 1496 1500 1503 1506 1509 1511 1514 1517 1518 1520 1522 1523 1523 1524 1524 1524 1524 1523 1522 1521 1521 1520 1519 1517 1515 1514 1512 1509 1507 1505 1502 1499 1496 1493 1490 1487 1484 1481 1478 1474 1471 1468
1486 1490 1494 1497 1501 1504 1507 1510 1513 1515 1516 1518 1519 1520 1521 1521 1521 1521 1520 1519 1518 1517 1516 1515 1513 1511 1509 1507 1505 1503 1500 1498 1495 1491 1488 1485 1482 1478 1475 1472 1468 1465 1461
1480 1485 1489 1493 1496 1500 1503 1506 1509 1511 1513 1514 1515 1517 1517 1518 1518 1518 1517 1516 1514 1513 1511 1511 1509 1507 1505 1503 1501 1498 1495 1493 1489 1486 1483 1480 1476 1473 1469 1466 1462 1459 1455
1477 1481 1485 1488 1492 1495 1499 1502 1504 1506 1508 1510 1512 1513 1514 1514 1514 1514 1513 1513 1512 1509 1507 1506 1505 1503 1501 1498 1496 1493 1490 1487 1484 1481 1477 1474 1471 1467 1464 1460 1456 1453 1450
1472 1476 1480 1484 1487 1491 1494 1497 1500 1502 1504 1506 1508 1509 1509 1510 1510 1510 1509 1509 1508 1506 1504 1502 1501 1499 1496 1494 1491 1488 1485 1482 1478 1475 1472 1469 1465 1462 1458 1454 1451 1447 1444
1466 1471 1475 1479 1482 1486 1489 1492 1495 1497 1500 1502 1503 1504 1505 1506 1506 1506 1505 1504 1503 1502 1500 1499 1497 1495 1492 1490 1487 1484 1480 1477 1473 1470 1467 1463 1460 1456 1453 1449 1445 1442 1439
1461 1465 1470 1474 1478 1481 1484 1487 1490 1493 1495 1497 1499 1500 1501 1502 1502 1502 1501 1500 1499 1498 1497 1494 1493 1491 1488 1485 1482 1479 1475 1472 1468 1465 1462 1458 1454 1451 1447 1443 1440 1437 1433
1456 1460 1465 1469 1473 1476 1480 1483 1486 1488 1491 1493 1494 1496 1496 1497 1497 1497 1497 1496 1495 1494 1492 1490 1488 1486 1484 1481 1477 1474 1471 1468 1464 1461 1457 1453 1450 1446 1442 1438 1435 1432 1429
1450 1455 1460 1464 1469 1472 1476 1479 1482 1484 1486 1488 1490 1491 1492 1493 1493 1493 1493 1492 1491 1490 1488 1486 1484 1482 1480 1477 1473 1470 1466 1463 1460 1456 1453 1449 1445 1441 1437 1433 1430 1427 1424
1446 1451 1456 1460 1464 1468 1471 1474 1477 1480 1482 1484 1486 1487 1488 1489 1489 1489 1488 1488 1486 1485 1484 1482 1480 1478 1475 1473 1470 1466 1462 1459 1456 1452 1448 1445 1441 1437 1433 1430 1426 1424 1421
1442 1447 1451 1456 1460 1464 1467 1471 1474 1476 1478 1480 1482 1483 1484 1485 1485 1485 1484 1484 1483 1482 1480 1479 1477 1474 1472 1470 1467 1464 1460 1455 1451 1449 1444 1441 1438 1434 1430 1426 1423 1421 1417
1437 1442 1447 1452 1456 1460 1464 1467 1470 1472 1474 1476 1478 1479 1480 1481 1481 1481 1481 1480 1479 1478 1477 1476 1474 1471 1469 1467 1464 1461 1457 1454 1450 1446 1441 1437 1434 1430 1427 1423 1420 1418 1414
1432 1438 1443 1448 1452 1456 1460 1463 1466 1468 1471 1472 1474 1476 1477 1477 1478 1478 1477 1477 1476 1475 1473 1472 1471 1469 1466 1464 1461 1459 1455 1452 1448 1444 1440 1435 1430 1427 1424 1421 1418 1415 1411
1429 1434 1439 1444 1448 1452 1456 1459 1462 1465 1467 1469 1471 1472 1474 1474 1475 1474 1474 1474 1473 1472 1471 1469 1468 1466 1464 1461 1459 1456 1452 1448 1444 1441 1437 1433 1428 1424 1420 1418 1416 1412 1408
1426 1431 1436 1441 1445 1449 1453 1456 1459 1461 1463 1466 1468 1469 1470 1471 1471 1471 1471 1470 1470 1469 1468 1467 1465 1463 1461 1459 1456 1453 1449 1446 1442 1439 1435 1432 1428 1423 1418 1415 1413 1410 1406